| time (UTC) | temp F | wind direction | speed knots | gust knots | rain 1hr in | rain 24hr in | rain mn in | humidity % | barometer mb |
| 20260503200004 | 51 | 119 | 7.0 | 8.7 | 0.02 | 0.06 | 0.06 | 77 | 1013.2 |
| 20260503194501 | 50 | 97 | 2.6 | 5.2 | 0.04 | 0.06 | 0.06 | 79 | 1013.8 |
| 20260503193000 | 49 | 77 | 0.9 | 3.5 | 0.06 | 0.06 | 0.06 | 82 | 1014.4 |
| 20260503191501 | 49 | 82 | 0.0 | 1.7 | 0.05 | 0.05 | 0.05 | 84 | 1014.5 |
| 20260503190003 | 49 | 271 | 0.0 | 1.7 | 0.04 | 0.04 | 0.04 | 81 | 1015.0 |
| 20260503184501 | 51 | 285 | 4.3 | 8.7 | 0.02 | 0.02 | 0.02 | 76 | 1015.5 |
| 20260503183001 | 51 | 281 | 10.4 | 16.5 | 0.00 | 0.00 | 0.00 | 74 | 1015.4 |
| 20260503180004 | 57 | 253 | 13.9 | 22.6 | 0.00 | 0.00 | 0.00 | 55 | 1015.0 |
| 20260503174502 | 58 | 242 | 14.8 | 19.1 | 0.00 | 0.00 | 0.00 | 53 | 1015.2 |
| 20260503173000 | 58 | 268 | 13.9 | 22.6 | 0.00 | 0.00 | 0.00 | 54 | 1015.4 |
| 20260503171502 | 58 | 257 | 13.9 | 21.7 | 0.00 | 0.00 | 0.00 | 54 | 1015.7 |
| 20260503081500 | 38 | 236 | 1.7 | 2.6 | 0.00 | 0.00 | 0.00 | 81 | 1016.7 |
| 20260503071459 | 38 | 233 | 2.6 | 3.5 | 0.00 | 0.00 | 0.00 | 79 | 1016.8 |
| 20260503054502 | 39 | 249 | 2.6 | 3.5 | 0.00 | 0.00 | 0.00 | 77 | 1017.5 |
| 20260503053000 | 39 | 240 | 1.7 | 2.6 | 0.00 | 0.00 | 0.00 | 78 | 1017.6 |
| 20260503051459 | 39 | 237 | 2.6 | 3.5 | 0.00 | 0.00 | 0.00 | 78 | 1017.6 |
| 20260503050004 | 39 | 242 | 1.7 | 3.5 | 0.00 | 0.00 | 0.00 | 78 | 1017.7 |
| 20260503044502 | 39 | 242 | 1.7 | 2.6 | 0.00 | 0.00 | 0.00 | 80 | 1017.7 |
| 20260503043000 | 39 | 245 | 1.7 | 1.7 | 0.00 | 0.00 | 0.00 | 80 | 1017.7 |
| 20260503041502 | 40 | 244 | 1.7 | 1.7 | 0.00 | 0.00 | 0.00 | 78 | 1017.7 |
| 20260503040006 | 40 | 245 | 0.9 | 1.7 | 0.00 | 0.00 | 0.00 | 77 | 1017.7 |
| 20260503034501 | 40 | 244 | 0.9 | 1.7 | 0.00 | 0.00 | 0.00 | 78 | 1017.7 |
| 20260503033002 | 40 | 244 | 1.7 | 2.6 | 0.00 | 0.00 | 0.00 | 77 | 1017.6 |
| 20260503030005 | 41 | 250 | 1.7 | 2.6 | 0.00 | 0.00 | 0.00 | 74 | 1017.8 |
| 20260503023001 | 42 | 338 | 0.0 | 0.9 | 0.00 | 0.00 | 0.00 | 68 | 1017.8 |
| 20260503021501 | 42 | 338 | 0.0 | 0.9 | 0.00 | 0.00 | 0.00 | 74 | 1017.7 |
| 20260503020004 | 43 | 338 | 0.0 | 0.9 | 0.00 | 0.00 | 0.00 | 73 | 1017.6 |
| 20260503014502 | 44 | 338 | 0.0 | 0.9 | 0.00 | 0.00 | 0.00 | 65 | 1017.5 |
| 20260503013001 | 45 | 338 | 0.0 | 0.0 | 0.00 | 0.00 | 0.00 | 64 | 1017.4 |
| 20260503010004 | 46 | 338 | 0.0 | 0.9 | 0.00 | 0.00 | 0.00 | 53 | 1017.4 |
| 20260503004501 | 48 | 338 | 0.9 | 0.9 | 0.00 | 0.00 | 0.00 | 51 | 1017.4 |
| 20260503003002 | 48 | 338 | 1.7 | 2.6 | 0.00 | 0.00 | 0.00 | 51 | 1017.3 |
| 20260503001502 | 49 | 333 | 1.7 | 2.6 | 0.00 | 0.00 | 0.00 | 49 | 1017.1 |
| 20260503000004 | 50 | 332 | 1.7 | 2.6 | 0.00 | 0.00 | 0.00 | 45 | 1017.1 |
| 20260502234502 | 50 | 342 | 1.7 | 3.5 | 0.00 | 0.00 | 0.00 | 48 | 1017.1 |
| 20260502233001 | 50 | 339 | 2.6 | 5.2 | 0.00 | 0.00 | 0.00 | 45 | 1017.1 |
| 20260502231501 | 51 | 330 | 3.5 | 5.2 | 0.00 | 0.00 | 0.00 | 46 | 1017.1 |
| 20260502230005 | 51 | 314 | 4.3 | 8.7 | 0.00 | 0.00 | 0.00 | 46 | 1017.2 |
| 20260502224502 | 52 | 328 | 3.5 | 6.1 | 0.00 | 0.00 | 0.00 | 47 | 1017.1 |
| 20260502223001 | 50 | 340 | 1.7 | 4.3 | 0.00 | 0.00 | 0.00 | 47 | 1017.2 |
| 20260502220004 | 50 | 338 | 2.6 | 5.2 | 0.00 | 0.00 | 0.00 | 47 | 1017.2 |
| 20260502214501 | 50 | 4 | 2.6 | 5.2 | 0.00 | 0.00 | 0.00 | 49 | 1017.2 |
| 20260502211501 | 52 | 295 | 4.3 | 7.8 | 0.00 | 0.00 | 0.00 | 45 | 1017.0 |
| 20260502210003 | 50 | 333 | 2.6 | 6.1 | 0.00 | 0.00 | 0.00 | 49 | 1017.2 |
| 20260502204501 | 51 | 311 | 3.5 | 6.1 | 0.00 | 0.00 | 0.00 | 50 | 1017.3 |
| 20260502201501 | 51 | 340 | 2.6 | 6.1 | 0.00 | 0.00 | 0.00 | 53 | 1017.6 |